Location: Lombard
(41.8800°N, 88.0080°W)
Time: 22:51:50
(UTC-05:00)

Transit 2A - Pass Details

Date: 08 February 2023
Orbit: 591 x 964 km, 66.7° (Epoch: 20 March)

Event Time Altitude Azimuth Distance (km) Brightness Sun altitude
Rises 01:12:53 0° 325° (NW) 3,542 - -59.6°
Reaches altitude 10° 01:15:24 10° 321° (NW) 2,634 - -59.3°
Maximum altitude 01:21:26 55° 246° (WSW) 1,141 - -58.6°
Drops below altitude 10° 01:27:37 10° 170° (S) 2,690 - -57.9°
Sets 01:30:12 0° 166° (SSE) 3,622 - -57.6°
